Starlink 3877

operational
NORAD ID: 52355 Int'l Des: 2022-045 Owner: SPXS Country: US Constellation: starlink
LEOCIRCULAR

About Starlink 3877

Description loading...

Live Position

Loading 3D Globe...

Upcoming Passes

Altitude History

Altitude vs Time

uPlot chart will show altitude changes over time

Two-Line Element Set

1 52355U 22045AA 26036.23129231 .00001439 00000-0 10850-3 0 9997
2 52355 53.2205 344.8356 0001504 94.7445 265.3719 15.08845017210886
Epoch: Feb 5, 2026 • Age: 10 hours

Current Status

Altitude 544.5 km
Velocity 7.59 km/s
Sub-Earth Point -16.69°S, 160.32°E
Launch Date Apr 29, 2022
Age 3.7 years
Type internet

Technical Details

Classification Payload
Mass 297.00 kg
Dry Mass 275.00 kg
Total Mass 297.00 kg
Length 0.20 m
Diameter 2.80 m
Span 9.00 m
Shape Box + pan
Manufacturer SPXS
Bus Type Starlink
Phase Status In Orbit
Owner/State SPXS/US

Large Constellations

Loading constellations...